![](https://secure.gravatar.com/avatar/e1f07f5a1039bcedb63fecc70f5623fc.jpg?s=120&d=mm&r=g)
SB KEPS @ AMSAT $ORB08115.O Orbital Elements 08115.OSCAR
HR AMSAT ORBITAL ELEMENTS FOR OSCAR SATELLITES FROM WA5QGD FORT WORTH,TX April 24, 2008 Send Subscribe/unsubscribe to KEPS at http://www.amsat.org/mailman/listinfo/keps BID: ORB08115.O TO ALL RADIO AMATEURS BT
Satellite: AO-07 Catalog number: 07530 Epoch time: 08115.58385405 Element set: 159 Inclination: 101.4703 deg RA of node: 148.8650 deg Eccentricity: 0.0011855 Arg of perigee: 008.1939 deg Mean anomaly: 351.9329 deg Mean motion: 12.53573857 rev/day Decay rate: -2.7e-07 rev/day^2 Epoch rev: 53026 Checksum: 303
Satellite: AO-10 Catalog number: 14129 Epoch time: 08113.39480003 Element set: 0498 Inclination: 025.9251 deg RA of node: 219.0918 deg Eccentricity: 0.6003731 Arg of perigee: 117.5251 deg Mean anomaly: 314.8092 deg Mean motion: 02.05870795 rev/day Decay rate: -5.1e-07 rev/day^2 Epoch rev: 18695 Checksum: 292
Satellite: UO-11 Catalog number: 14781 Epoch time: 08114.54478765 Element set: 651 Inclination: 098.1579 deg RA of node: 147.7489 deg Eccentricity: 0.0008087 Arg of perigee: 245.6245 deg Mean anomaly: 114.4115 deg Mean motion: 14.79636871 rev/day Decay rate: 2.67e-06 rev/day^2 Epoch rev: 29577 Checksum: 349
Satellite: RS-15 Catalog number: 23439 Epoch time: 08114.82310690 Element set: 0138 Inclination: 064.8157 deg RA of node: 222.9549 deg Eccentricity: 0.0149174 Arg of perigee: 133.2248 deg Mean anomaly: 228.1243 deg Mean motion: 11.27552013 rev/day Decay rate: -3.9e-07 rev/day^2 Epoch rev: 54883 Checksum: 296
Satellite: FO-29 Catalog number: 24278 Epoch time: 08115.80201913 Element set: 755 Inclination: 098.5880 deg RA of node: 039.0696 deg Eccentricity: 0.0351008 Arg of perigee: 353.8943 deg Mean anomaly: 005.7973 deg Mean motion: 13.52937397 rev/day Decay rate: -8.0e-08 rev/day^2 Epoch rev: 57717 Checksum: 341
Satellite: SO-33 Catalog number: 25509 Epoch time: 08115.57722574 Element set: 182 Inclination: 031.4337 deg RA of node: 259.4752 deg Eccentricity: 0.0355477 Arg of perigee: 278.4130 deg Mean anomaly: 077.6327 deg Mean motion: 14.28211524 rev/day Decay rate: 2.4e-07 rev/day^2 Epoch rev: 49594 Checksum: 313
Satellite: AO-40 Catalog number: 26609 Epoch time: 08113.87392119 Element set: 0046 Inclination: 007.5780 deg RA of node: 086.5395 deg Eccentricity: 0.7915793 Arg of perigee: 074.0362 deg Mean anomaly: 353.2976 deg Mean motion: 01.25583993 rev/day Decay rate: -1.65e-06 rev/day^2 Epoch rev: 03434 Checksum: 333
Satellite: VO-52 Catalog number: 28650 Epoch time: 08114.69713534 Element set: 0913 Inclination: 097.7919 deg RA of node: 182.7938 deg Eccentricity: 0.0026290 Arg of perigee: 320.4084 deg Mean anomaly: 039.5212 deg Mean motion: 14.81453278 rev/day Decay rate: 3.95e-06 rev/day^2 Epoch rev: 16053 Checksum: 320
Satellite: PO-63 Catalog number: 29712 Epoch time: 08115.61589571 Element set: 387 Inclination: 097.8784 deg RA of node: 174.8004 deg Eccentricity: 0.0013880 Arg of perigee: 190.7955 deg Mean anomaly: 169.2974 deg Mean motion: 14.80117073 rev/day Decay rate: 6.71e-06 rev/day^2 Epoch rev: 6954 Checksum: 346
/EX SB KEPS @ AMSAT $ORB08115.D Orbital Elements 08115.MICROS
HR AMSAT ORBITAL ELEMENTS FOR THE MICROSATS FROM WA5QGD FORT WORTH,TX April 24, 2008 Send Subscribe/unsubscribe to KEPS at http://www.amsat.org/mailman/listinfo/keps BID: ORB08115.D TO ALL RADIO AMATEURS BT
Satellite: AO-16 Catalog number: 20439 Epoch time: 08114.56221917 Element set: 0305 Inclination: 098.2263 deg RA of node: 097.4277 deg Eccentricity: 0.0011010 Arg of perigee: 345.1825 deg Mean anomaly: 014.9040 deg Mean motion: 14.31790984 rev/day Decay rate: -5.0e-08 rev/day^2 Epoch rev: 95310 Checksum: 277
Satellite: LO-19 Catalog number: 20442 Epoch time: 08114.47884873 Element set: 230 Inclination: 098.1983 deg RA of node: 106.0477 deg Eccentricity: 0.0011623 Arg of perigee: 342.9407 deg Mean anomaly: 017.1389 deg Mean motion: 14.32030001 rev/day Decay rate: 8.6e-07 rev/day^2 Epoch rev: 95324 Checksum: 286
Satellite: AO-27 Catalog number: 22825 Epoch time: 08114.66491738 Element set: 0953 Inclination: 098.3797 deg RA of node: 076.7450 deg Eccentricity: 0.0009296 Arg of perigee: 065.1911 deg Mean anomaly: 295.0246 deg Mean motion: 14.29236455 rev/day Decay rate: -3.6e-07 rev/day^2 Epoch rev: 75998 Checksum: 352
Satellite: IO-26 Catalog number: 22826 Epoch time: 08114.65843860 Element set: 0657 Inclination: 098.3726 deg RA of node: 077.6735 deg Eccentricity: 0.0009872 Arg of perigee: 061.0317 deg Mean anomaly: 299.1852 deg Mean motion: 14.29484842 rev/day Decay rate: -1.4e-07 rev/day^2 Epoch rev: 76007 Checksum: 333
Satellite: PO-28 Catalog number: 22829 Epoch time: 08114.46177540 Element set: 927 Inclination: 098.3602 deg RA of node: 078.5987 deg Eccentricity: 0.0010477 Arg of perigee: 035.6699 deg Mean anomaly: 324.5178 deg Mean motion: 14.30186668 rev/day Decay rate: -2.7e-07 rev/day^2 Epoch rev: 76030 Checksum: 338
Satellite: GO-32 Catalog number: 25397 Epoch time: 08115.60684237 Element set: 582 Inclination: 098.3686 deg RA of node: 153.4034 deg Eccentricity: 0.0001891 Arg of perigee: 064.0857 deg Mean anomaly: 296.0511 deg Mean motion: 14.23141600 rev/day Decay rate: -1.11e-06 rev/day^2 Epoch rev: 50859 Checksum: 293
Satellite: MO-46 Catalog number: 26548 Epoch time: 08114.62227420 Element set: 0080 Inclination: 064.5565 deg RA of node: 299.1149 deg Eccentricity: 0.0023524 Arg of perigee: 331.9058 deg Mean anomaly: 028.0773 deg Mean motion: 14.83251442 rev/day Decay rate: -8.0e-07 rev/day^2 Epoch rev: 40972 Checksum: 296
Satellite: NO-44 Catalog number: 26931 Epoch time: 08114.85349754 Element set: 0862 Inclination: 067.0528 deg RA of node: 064.6243 deg Eccentricity: 0.0005986 Arg of perigee: 278.6409 deg Mean anomaly: 081.4006 deg Mean motion: 14.29520988 rev/day Decay rate: 1.31e-06 rev/day^2 Epoch rev: 34264 Checksum: 322
Satellite: SO-50 Catalog number: 27607 Epoch time: 08114.69991080 Element set: 585 Inclination: 064.5594 deg RA of node: 219.1133 deg Eccentricity: 0.0083871 Arg of perigee: 290.1006 deg Mean anomaly: 069.1079 deg Mean motion: 14.71347486 rev/day Decay rate: -3.0e-08 rev/day^2 Epoch rev: 28695 Checksum: 322
Satellite: CO-55 Catalog number: 27844 Epoch time: 08114.56902835 Element set: 0289 Inclination: 098.7167 deg RA of node: 123.5927 deg Eccentricity: 0.0009023 Arg of perigee: 276.4588 deg Mean anomaly: 083.5578 deg Mean motion: 14.20574823 rev/day Decay rate: 1.13e-06 rev/day^2 Epoch rev: 24968 Checksum: 343
Satellite: CO-57 Catalog number: 27848 Epoch time: 08114.55977377 Element set: 0241 Inclination: 098.7177 deg RA of node: 122.6907 deg Eccentricity: 0.0009064 Arg of perigee: 280.5976 deg Mean anomaly: 079.4197 deg Mean motion: 14.20384034 rev/day Decay rate: 4.5e-07 rev/day^2 Epoch rev: 24965 Checksum: 346
Satellite: AO-51 Catalog number: 28375 Epoch time: 08114.59529631 Element set: 0084 Inclination: 098.0763 deg RA of node: 142.2252 deg Eccentricity: 0.0084199 Arg of perigee: 319.2524 deg Mean anomaly: 040.2390 deg Mean motion: 14.40604489 rev/day Decay rate: 1.4e-07 rev/day^2 Epoch rev: 20054 Checksum: 290
Satellite: CO-56 Catalog number: 28941 Epoch time: 08115.42729535 Element set: 995 Inclination: 098.1037 deg RA of node: 218.9086 deg Eccentricity: 0.0175475 Arg of perigee: 235.8872 deg Mean anomaly: 122.5644 deg Mean motion: 15.53895215 rev/day Decay rate: 3.5921e-04 rev/day^2 Epoch rev: 12168 Checksum: 350
Satellite: CP4 Catalog number: 31122 Epoch time: 08115.73308505 Element set: 321 Inclination: 098.0458 deg RA of node: 183.3002 deg Eccentricity: 0.0086691 Arg of perigee: 134.5428 deg Mean anomaly: 226.2833 deg Mean motion: 14.55115737 rev/day Decay rate: 5.52e-06 rev/day^2 Epoch rev: 5430 Checksum: 271
Satellite: CP3 Catalog number: 31128 Epoch time: 08115.72036305 Element set: 314 Inclination: 098.0400 deg RA of node: 181.4094 deg Eccentricity: 0.0103852 Arg of perigee: 139.8000 deg Mean anomaly: 221.0970 deg Mean motion: 14.51937465 rev/day Decay rate: -4.6e-07 rev/day^2 Epoch rev: 5417 Checksum: 259
Satellite: LIBERT Catalog number: 31129 Epoch time: 08115.62889608 Element set: 915 Inclination: 098.0427 deg RA of node: 181.3607 deg Eccentricity: 0.0103297 Arg of perigee: 139.9984 deg Mean anomaly: 220.8856 deg Mean motion: 14.52028250 rev/day Decay rate: 3.40e-06 rev/day^2 Epoch rev: 5414 Checksum: 304
/EX SB KEPS @ AMSAT $ORB08115.W Orbital Elements 08115.WEATHER
HR AMSAT ORBITAL ELEMENTS FOR WEATHER SATELLITES FROM WA5QGD FORT WORTH,TX April 24, 2008 Send Subscribe/unsubscribe to KEPS at http://www.amsat.org/mailman/listinfo/keps BID: ORB08115.W TO ALL RADIO AMATEURS BT
Satellite: NOAA-10 Catalog number: 16969 Epoch time: 08114.61745270 Element set: 96 Inclination: 098.7254 deg RA of node: 136.6882 deg Eccentricity: 0.0012075 Arg of perigee: 344.6664 deg Mean anomaly: 015.4158 deg Mean motion: 14.27356485 rev/day Decay rate: -1.50e-06 rev/day^2 Epoch rev: 12365 Checksum: 313
Satellite: NOAA-11 Catalog number: 19531 Epoch time: 08114.71523827 Element set: 139 Inclination: 098.7959 deg RA of node: 204.8009 deg Eccentricity: 0.0011143 Arg of perigee: 220.2339 deg Mean anomaly: 139.8010 deg Mean motion: 14.14870731 rev/day Decay rate: 1.29e-06 rev/day^2 Epoch rev: 1020 Checksum: 267
Satellite: NOAA-12 Catalog number: 21263 Epoch time: 08114.66509751 Element set: 646 Inclination: 098.7662 deg RA of node: 116.6230 deg Eccentricity: 0.0011423 Arg of perigee: 285.1479 deg Mean anomaly: 074.8425 deg Mean motion: 14.25528388 rev/day Decay rate: 1.10e-06 rev/day^2 Epoch rev: 88062 Checksum: 302
Satellite: MET-3/5 Catalog number: 21655 Epoch time: 08115.78675368 Element set: 422 Inclination: 082.5548 deg RA of node: 142.1119 deg Eccentricity: 0.0013894 Arg of perigee: 141.4381 deg Mean anomaly: 218.7736 deg Mean motion: 13.17015289 rev/day Decay rate: 5.1e-07 rev/day^2 Epoch rev: 80255 Checksum: 306
